TimeEST,TemperatureF,Dew PointF,Humidity,Sea Level PressureIn,VisibilityMPH,Wind Direction,Wind SpeedMPH,Gust SpeedMPH,PrecipitationIn,Events,Conditions,WindDirDegrees,DateUTC
12:15 AM,42.8,42.8,100,30.38,10.0,Calm,Calm,-,N/A,,Clear,0,2012-11-11 05:15:00
12:35 AM,42.8,41.0,93,30.38,10.0,Calm,Calm,-,N/A,,Clear,0,2012-11-11 05:35:00
12:55 AM,42.8,42.8,100,30.38,10.0,Calm,Calm,-,N/A,,Clear,0,2012-11-11 05:55:00
1:15 AM,41.0,41.0,100,30.37,10.0,Calm,Calm,-,N/A,,Clear,0,2012-11-11 06:15:00
1:35 AM,41.0,41.0,100,30.37,10.0,Calm,Calm,-,N/A,,Clear,0,2012-11-11 06:35:00
1:55 AM,41.0,41.0,100,30.37,10.0,Calm,Calm,-,N/A,,Clear,0,2012-11-11 06:55:00
2:15 AM,41.0,41.0,100,30.37,10.0,Calm,Calm,-,N/A,,Clear,0,2012-11-11 07:15:00
2:35 AM,41.0,41.0,100,30.37,10.0,Calm,Calm,-,N/A,,Clear,0,2012-11-11 07:35:00
2:55 AM,42.8,42.8,100,30.37,10.0,Calm,Calm,-,N/A,,Clear,0,2012-11-11 07:55:00
3:15 AM,41.0,41.0,100,30.37,10.0,Calm,Calm,-,N/A,,Clear,0,2012-11-11 08:15:00
3:35 AM,41.0,41.0,100,30.37,10.0,Calm,Calm,-,N/A,,Clear,0,2012-11-11 08:35:00
3:55 AM,41.0,41.0,100,30.37,10.0,Calm,Calm,-,N/A,,Clear,0,2012-11-11 08:55:00
4:15 AM,41.0,41.0,100,30.37,10.0,Calm,Calm,-,N/A,,Clear,0,2012-11-11 09:15:00
4:35 AM,41.0,41.0,100,30.37,10.0,Calm,Calm,-,N/A,,Clear,0,2012-11-11 09:35:00
4:55 AM,41.0,41.0,100,30.37,10.0,Calm,Calm,-,N/A,,Clear,0,2012-11-11 09:55:00
5:15 AM,41.0,41.0,100,30.38,10.0,Calm,Calm,-,N/A,,Clear,0,2012-11-11 10:15:00
5:35 AM,41.0,41.0,100,30.38,10.0,Calm,Calm,-,N/A,,Clear,0,2012-11-11 10:35:00
5:55 AM,41.0,41.0,100,30.38,10.0,Calm,Calm,-,N/A,,Clear,0,2012-11-11 10:55:00
6:15 AM,41.0,41.0,100,30.39,10.0,Calm,Calm,-,N/A,,Scattered Clouds,0,2012-11-11 11:15:00
6:35 AM,41.0,41.0,100,30.39,10.0,Calm,Calm,-,N/A,,Mostly Cloudy,0,2012-11-11 11:35:00
6:55 AM,41.0,41.0,100,30.39,7.0,Calm,Calm,-,N/A,,Clear,0,2012-11-11 11:55:00
7:15 AM,41.0,41.0,100,30.41,10.0,Calm,Calm,-,N/A,,Scattered Clouds,0,2012-11-11 12:15:00
7:35 AM,44.6,44.6,100,30.41,10.0,Calm,Calm,-,N/A,,Overcast,0,2012-11-11 12:35:00
7:55 AM,46.4,46.4,100,30.42,10.0,Calm,Calm,-,N/A,,Overcast,0,2012-11-11 12:55:00
8:15 AM,50.0,46.4,87,30.42,10.0,Calm,Calm,-,N/A,,Overcast,0,2012-11-11 13:15:00
8:35 AM,51.8,46.4,82,30.43,10.0,Calm,Calm,-,N/A,,Overcast,0,2012-11-11 13:35:00
8:55 AM,51.8,46.4,82,30.43,10.0,Calm,Calm,-,N/A,,Overcast,0,2012-11-11 13:55:00
9:15 AM,53.6,46.4,77,30.44,10.0,Calm,Calm,-,N/A,,Overcast,0,2012-11-11 14:15:00
9:55 AM,57.2,46.4,67,30.45,10.0,Calm,Calm,-,N/A,,Overcast,0,2012-11-11 14:55:00
10:15 AM,60.8,46.4,59,30.45,10.0,Calm,Calm,-,N/A,,Overcast,0,2012-11-11 15:15:00
10:35 AM,62.6,46.4,55,30.45,10.0,East,4.6,-,N/A,,Overcast,80,2012-11-11 15:35:00
10:55 AM,64.4,46.4,52,30.44,10.0,East,3.5,-,N/A,,Overcast,80,2012-11-11 15:55:00
11:15 AM,66.2,46.4,49,30.44,10.0,East,4.6,-,N/A,,Overcast,90,2012-11-11 16:15:00
11:35 AM,69.8,48.2,46,30.43,10.0,ENE,3.5,-,N/A,,Overcast,70,2012-11-11 16:35:00
11:55 AM,71.6,50.0,46,30.42,10.0,East,6.9,-,N/A,,Overcast,80,2012-11-11 16:55:00
12:15 PM,73.4,48.2,41,30.41,10.0,East,6.9,-,N/A,,Mostly Cloudy,100,2012-11-11 17:15:00
12:35 PM,73.4,46.4,38,30.40,10.0,ESE,3.5,-,N/A,,Scattered Clouds,110,2012-11-11 17:35:00
12:55 PM,75.2,44.6,34,30.39,10.0,East,4.6,-,N/A,,Scattered Clouds,100,2012-11-11 17:55:00
1:15 PM,78.8,44.6,30,30.37,10.0,SSE,8.1,-,N/A,,Mostly Cloudy,150,2012-11-11 18:15:00
1:35 PM,77.0,44.6,32,30.37,10.0,SE,9.2,-,N/A,,Mostly Cloudy,130,2012-11-11 18:35:00
1:55 PM,77.0,44.6,32,30.36,10.0,SE,8.1,-,N/A,,Scattered Clouds,140,2012-11-11 18:55:00
2:15 PM,77.0,44.6,32,30.35,7.0,SE,6.9,17.3,N/A,,Mostly Cloudy,130,2012-11-11 19:15:00
2:35 PM,77.0,44.6,32,30.34,7.0,SSE,5.8,-,N/A,,Overcast,160,2012-11-11 19:35:00
2:55 PM,75.2,44.6,34,30.34,5.0,SSE,10.4,-,N/A,,Haze,150,2012-11-11 19:55:00
3:15 PM,77.0,44.6,32,30.34,7.0,SSE,8.1,-,N/A,,Mostly Cloudy,160,2012-11-11 20:15:00
3:35 PM,78.8,44.6,30,30.34,10.0,ESE,10.4,17.3,N/A,,Mostly Cloudy,110,2012-11-11 20:35:00
3:55 PM,75.2,46.4,36,30.34,7.0,SSE,10.4,-,N/A,,Mostly Cloudy,150,2012-11-11 20:55:00
4:15 PM,75.2,48.2,38,30.34,7.0,SE,11.5,-,N/A,,Overcast,130,2012-11-11 21:15:00
4:35 PM,73.4,48.2,41,30.34,10.0,SE,9.2,-,N/A,,Overcast,140,2012-11-11 21:35:00
4:55 PM,73.4,48.2,41,30.34,10.0,SE,8.1,-,N/A,,Mostly Cloudy,140,2012-11-11 21:55:00
5:15 PM,73.4,50.0,44,30.34,10.0,ESE,5.8,-,N/A,,Scattered Clouds,110,2012-11-11 22:15:00
5:35 PM,71.6,50.0,46,30.34,10.0,ESE,5.8,-,N/A,,Clear,120,2012-11-11 22:35:00
5:55 PM,69.8,51.8,53,30.34,10.0,ESE,3.5,-,N/A,,Clear,120,2012-11-11 22:55:00
6:15 PM,69.8,51.8,53,30.34,10.0,Calm,Calm,-,N/A,,Clear,0,2012-11-11 23:15:00
6:35 PM,66.2,51.8,60,30.35,10.0,Calm,Calm,-,N/A,,Clear,0,2012-11-11 23:35:00
6:55 PM,62.6,51.8,68,30.35,10.0,Calm,Calm,-,N/A,,Clear,0,2012-11-11 23:55:00
7:15 PM,62.6,53.6,72,30.35,10.0,East,3.5,-,N/A,,Clear,100,2012-11-12 00:15:00
7:35 PM,62.6,53.6,72,30.35,10.0,East,3.5,-,N/A,,Clear,100,2012-11-12 00:35:00
7:55 PM,62.6,53.6,72,30.35,10.0,Calm,Calm,-,N/A,,Clear,0,2012-11-12 00:55:00
8:15 PM,60.8,51.8,72,30.35,10.0,East,3.5,-,N/A,,Clear,100,2012-11-12 01:15:00
8:35 PM,62.6,53.6,72,30.34,10.0,ESE,5.8,-,N/A,,Clear,110,2012-11-12 01:35:00
8:55 PM,62.6,53.6,72,30.35,10.0,ESE,5.8,-,N/A,,Clear,120,2012-11-12 01:55:00
9:15 PM,62.6,53.6,72,30.35,10.0,ESE,5.8,-,N/A,,Clear,110,2012-11-12 02:15:00
9:35 PM,62.6,55.4,77,30.34,10.0,ESE,6.9,-,N/A,,Clear,120,2012-11-12 02:35:00
9:55 PM,62.6,55.4,77,30.35,10.0,ESE,5.8,-,N/A,,Clear,120,2012-11-12 02:55:00
10:15 PM,62.6,55.4,77,30.35,10.0,ESE,3.5,-,N/A,,Clear,120,2012-11-12 03:15:00
10:35 PM,62.6,59.0,88,30.36,10.0,ESE,3.5,-,N/A,,Clear,110,2012-11-12 03:35:00
10:55 PM,60.8,59.0,94,30.35,10.0,ESE,3.5,-,N/A,,Clear,110,2012-11-12 03:55:00
11:15 PM,60.8,59.0,94,30.35,10.0,Calm,Calm,-,N/A,,Clear,0,2012-11-12 04:15:00
11:35 PM,55.4,53.6,94,30.35,10.0,Calm,Calm,-,N/A,,Clear,0,2012-11-12 04:35:00
11:55 PM,53.6,53.6,100,30.35,3.0,Calm,Calm,-,N/A,,Clear,0,2012-11-12 04:55:00